Date String (YYYY-MM-DD hh:mm:ss) UTC,Instrument flags,Ambient pressure (hPa),Sample flow (lpm),Bypass flow (lpm),Sample temperature (°C),Ambient temperature (°C),ASC tube jacket temperature (°C),LED temperature (°C),Box temperature (°C),Sample RH (%),Span deviation,Mass concentration (μg/m³),Mass concentration (μg/m³),Mass concentration (μg/m³)
DateTimeUTC,F1_M11,P_M11,Q1_M11,Q2_M11,T1_M11,T2_M11,T3_M11,T4_M11,T5_M11,U1_M11,ZSPAN_M11,X0_M11,X2_M11,X1_M11
2022-12-13 21:00:00,,0810.6,4.97,0.00,20.7,21.6,00.0,29.4,22.5,09.3,0000.0,0020.61,0006.24,0004.94
2022-12-13 21:01:00,,0810.6,5.02,0.00,20.7,20.8,00.0,29.4,22.4,09.3,0000.0,0020.17,0006.23,0004.93
2022-12-13 21:02:00,,0810.6,4.98,0.00,20.7,19.9,00.0,29.5,22.2,09.2,0000.0,0020.57,0006.22,0004.91
2022-12-13 21:03:00,,0810.7,4.99,0.00,20.6,19.2,00.0,29.5,22.0,09.3,0000.0,0019.54,0006.17,0004.90
2022-12-13 21:04:00,,0810.6,5.04,0.00,20.5,18.7,00.0,29.4,21.9,09.3,0000.0,0018.51,0006.11,0004.87
2022-12-13 21:05:00,,0810.6,4.95,0.00,20.4,18.2,00.0,29.4,21.8,09.4,0000.0,0018.39,0006.05,0004.84
2022-12-13 21:06:00,,0810.6,5.06,0.00,20.3,18.0,00.0,29.4,21.7,09.4,0000.0,0017.64,0005.97,0004.81
2022-12-13 21:07:00,,0810.6,4.97,0.00,20.4,19.2,00.0,29.3,21.8,09.4,0000.0,0016.32,0005.92,0004.79
2022-12-13 21:08:00,,0810.7,5.03,0.00,20.5,20.7,00.0,29.3,22.2,09.3,0000.0,0015.98,0005.90,0004.77
2022-12-13 21:09:00,,0810.6,4.98,0.00,20.6,21.6,00.0,29.4,22.5,09.2,0000.0,0015.59,0005.90,0004.77
2022-12-13 21:10:00,,0810.6,5.03,0.00,20.7,21.0,00.0,29.4,22.4,09.2,0000.0,0016.31,0005.98,0004.76
2022-12-13 21:11:00,,0810.6,4.97,0.00,20.7,20.2,00.0,29.4,22.3,09.3,0000.0,0016.65,0006.03,0004.75
2022-12-13 21:12:00,,0810.7,5.00,0.00,20.6,19.5,00.0,29.5,22.1,09.4,0000.0,0016.92,0006.03,0004.76
2022-12-13 21:13:00,,0810.7,5.03,0.00,20.5,18.9,00.0,29.4,22.0,09.3,0000.0,0017.09,0006.08,0004.77
2022-12-13 21:14:00,,0810.7,4.96,0.00,20.5,18.5,00.0,29.4,21.9,09.4,0000.0,0017.59,0006.10,0004.78
2022-12-13 21:15:00,,0810.7,5.04,0.00,20.4,18.2,00.0,29.4,21.8,09.4,0000.0,0018.20,0006.16,0004.80
2022-12-13 21:16:00,,0810.8,4.96,0.00,20.4,19.2,00.0,29.4,21.9,09.5,0000.0,0017.36,0006.15,0004.81
2022-12-13 21:17:00,,0810.8,5.02,0.00,20.5,20.7,00.0,29.4,22.3,09.4,0000.0,0017.33,0006.18,0004.82
2022-12-13 21:18:00,,0810.9,4.98,0.00,20.7,20.9,00.0,29.4,22.4,09.3,0000.0,0017.41,0006.14,0004.82
2022-12-13 21:19:00,,0810.9,5.01,0.00,20.6,20.0,00.0,29.4,22.2,09.3,0000.0,0017.69,0006.11,0004.83
2022-12-13 21:20:00,,0810.9,5.00,0.00,20.6,19.3,00.0,29.4,22.1,09.4,0000.0,0017.36,0006.14,0004.85
2022-12-13 21:21:00,,0810.8,5.03,0.00,20.5,18.7,00.0,29.4,21.9,09.4,0000.0,0017.03,0006.16,0004.87
2022-12-13 21:22:00,,0810.8,4.95,0.00,20.4,18.4,00.0,29.4,21.8,09.4,0000.0,0017.35,0006.13,0004.87
2022-12-13 21:23:00,,0810.8,5.06,0.00,20.4,18.7,00.0,29.4,21.8,09.5,0000.0,0017.71,0006.12,0004.87
2022-12-13 21:24:00,,0810.8,4.97,0.00,20.5,20.3,00.0,29.4,22.1,09.5,0000.0,0017.54,0006.05,0004.85
2022-12-13 21:25:00,,0810.8,5.01,0.00,20.6,21.4,00.0,29.4,22.5,09.4,0000.0,0017.31,0006.04,0004.84
2022-12-13 21:26:00,,0810.8,4.99,0.00,20.7,20.9,00.0,29.4,22.4,09.4,0000.0,0017.72,0006.02,0004.81
2022-12-13 21:27:00,,0810.7,5.01,0.00,20.7,20.1,00.0,29.4,22.3,09.5,0000.0,0017.90,0006.05,0004.78
2022-12-13 21:28:00,,0810.8,5.01,0.00,20.6,19.5,00.0,29.5,22.1,09.6,0000.0,0018.10,0006.04,0004.76
2022-12-13 21:29:00,,0810.8,4.99,0.00,20.6,19.2,00.0,29.5,22.0,09.7,0000.0,0018.67,0006.06,0004.73
2022-12-13 21:30:00,,0810.8,5.00,0.00,20.5,18.9,00.0,29.4,22.0,09.7,0000.0,0018.72,0006.03,0004.71
2022-12-13 21:31:00,,0810.9,4.98,0.00,20.5,18.6,00.0,29.4,21.9,09.7,0000.0,0018.14,0005.96,0004.67
2022-12-13 21:32:00,,0810.9,5.06,0.00,20.5,18.8,00.0,29.4,21.9,09.7,0000.0,0018.16,0005.89,0004.65
2022-12-13 21:33:00,,0810.9,4.97,0.00,20.6,20.3,00.0,29.4,22.3,09.6,0000.0,0018.19,0005.89,0004.64
2022-12-13 21:34:00,,0811.0,5.03,0.00,20.7,21.3,00.0,29.4,22.6,09.6,0000.0,0018.01,0005.92,0004.62
2022-12-13 21:35:00,,0811.0,4.97,0.00,20.8,20.8,00.0,29.5,22.6,09.5,0000.0,0018.88,0005.96,0004.62
2022-12-13 21:36:00,,0810.9,5.01,0.00,20.7,20.0,00.0,29.5,22.4,09.5,0000.0,0019.35,0005.98,0004.62
2022-12-13 21:37:00,,0810.9,4.99,0.00,20.7,19.4,00.0,29.5,22.1,09.5,0000.0,0018.99,0005.95,0004.63
2022-12-13 21:38:00,,0810.9,4.99,0.00,20.6,19.0,00.0,29.5,22.0,09.6,0000.0,0019.04,0005.93,0004.64
2022-12-13 21:39:00,,0810.9,5.03,0.00,20.6,18.7,00.0,29.5,22.0,09.6,0000.0,0019.85,0005.94,0004.66
2022-12-13 21:40:00,,0811.0,4.95,0.00,20.5,18.5,00.0,29.4,21.9,09.7,0000.0,0020.40,0005.96,0004.67
2022-12-13 21:41:00,,0810.9,5.05,0.00,20.5,19.4,00.0,29.4,22.1,09.7,0000.0,0021.57,0005.96,0004.66
2022-12-13 21:42:00,,0811.0,4.95,0.00,20.7,20.9,00.0,29.4,22.4,09.7,0000.0,0021.97,0005.98,0004.67
2022-12-13 21:43:00,,0811.0,5.04,0.00,20.8,21.3,00.0,29.5,22.6,09.7,0000.0,0022.03,0005.97,0004.68
2022-12-13 21:44:00,,0811.0,4.97,0.00,20.8,20.6,00.0,29.5,22.5,09.7,0000.0,0021.26,0005.95,0004.68
2022-12-13 21:45:00,,0811.0,5.01,0.00,20.7,20.0,00.0,29.5,22.3,09.7,0000.0,0021.33,0005.91,0004.68
2022-12-13 21:46:00,,0811.0,4.99,0.00,20.7,19.5,00.0,29.5,22.2,09.7,0000.1,0021.58,0005.86,0004.67
2022-12-13 21:47:00,,0811.0,5.03,0.00,20.6,19.0,00.0,29.5,22.1,09.7,0000.0,0020.68,0005.83,0004.65
2022-12-13 21:48:00,,0811.0,4.98,0.00,20.6,18.6,00.0,29.5,22.0,09.7,0000.8,0021.13,0005.81,0004.61
2022-12-13 21:49:00,,0811.0,5.01,0.00,20.5,18.4,00.0,29.5,21.9,09.8,0000.3,0022.35,0005.84,0004.58
2022-12-13 21:50:00,,0811.0,4.98,0.00,20.5,19.1,00.0,29.4,22.0,09.8,0000.0,0021.98,0005.76,0004.55
2022-12-13 21:51:00,,0811.1,5.02,0.00,20.6,20.7,00.0,29.4,22.4,09.8,0000.0,0021.30,0005.68,0004.52
2022-12-13 21:52:00,,0811.0,4.97,0.00,20.8,21.3,00.0,29.5,22.6,09.8,0000.0,0020.54,0005.68,0004.51
2022-12-13 21:53:00,,0811.0,5.01,0.00,20.8,20.6,00.0,29.5,22.5,09.8,0000.0,0021.05,0005.66,0004.49
2022-12-13 21:54:00,,0811.1,5.00,0.00,20.7,19.9,00.0,29.5,22.3,09.8,0000.0,0020.72,0005.66,0004.46
2022-12-13 21:55:00,,0811.0,5.00,0.00,20.7,19.4,00.0,29.5,22.2,09.8,0000.0,0020.89,0005.69,0004.43
2022-12-13 21:56:00,,0811.0,4.99,0.00,20.6,19.0,00.0,29.5,22.1,09.9,0000.0,0021.68,0005.77,0004.42
2022-12-13 21:57:00,,0811.0,4.99,0.00,20.6,18.8,00.0,29.5,22.1,09.9,0000.0,0020.50,0005.77,0004.41
2022-12-13 21:58:00,,0811.0,5.03,0.00,20.6,18.6,00.0,29.5,22.0,09.9,0000.0,0020.39,0005.74,0004.40
2022-12-13 21:59:00,,0811.0,4.98,0.00,20.6,19.2,00.0,29.5,22.1,09.9,0000.0,0020.25,0005.76,0004.41
